Flag for U.S.A. Weather past 2 weeks in Boca Raton, Florida, U.S.A.

Now
75 °F

Passing clouds.


Feels Like: N/A
Forecast: 74 / 87 °F
Wind: 3 mph from Northwest

Location: Pompano Beach - Pompano Beach Airpark

Current Time: Apr 18, 2015 at 5:05:02 AM

Latest Report: Apr 18, 2015 at 3:53 AM


Visibility: 10 mi

Pressure: 29.98 "Hg

Humidity: N/A

Dew point: N/A

Location of Boca RatonLocation

Historic Weather in Boca Raton — Graph

°F

Boca Raton temperature yesterday

Maximum temperature yesterday: 87 °F (at 11:53 AM)
Minimum temperature yesterday: 76 °F (at 4:53 AM)
Average temperature yesterday: 81 °F

Past Weeks' High & Low Weather Summary

 TemperatureHumidityPressure
High87 °F (Apr 17, 11:53 AM)90% (Apr 5, 6:53 AM)30.19 "Hg (Apr 5, 6:53 AM)
Low68 °F (Apr 4, 6:53 AM)51% (Apr 3, 2:53 PM)29.96 "Hg (Apr 17, 5:53 PM)
Average79 °F68%30.10 "Hg
* Reported Apr 3 3:53 AM — Apr 18 3:53 AM, Boca Raton, Weather by CustomWeather, © 2015

Note: Actual official high and low records may vary slightly from our data, if they occured in-between our weather recording intervals... More about our weather records

Advertising

Boca Raton weather history for previous 24 hours

 ConditionsComfort  
Time TempWeatherWind HumidityBarometerVisibility
3:53 AM
Sat, Apr 18
75 °FPassing clouds.3 mphN/A29.98 "Hg10 mi
2:53 AM79 °FPassing clouds.3 mphN/A29.98 "Hg10 mi
1:53 AM78 °FClear.3 mph79%29.99 "Hg10 mi
12:53 AM79 °FPassing clouds.3 mph79%30.01 "Hg10 mi
11:53 PM
Fri, Apr 17
79 °FClear.No wind82%30.01 "Hg10 mi
10:53 PM79 °FClear.No wind82%30.02 "Hg10 mi
9:53 PM79 °FPassing clouds.3 mph79%30.00 "Hg10 mi
8:53 PM78 °FPassing clouds.3 mph82%29.99 "Hg10 mi
7:53 PM80 °FLight rain. Broken clouds.8 mph76%29.98 "Hg7 mi
6:53 PM81 °FThundershowers. Scattered clouds.12 mph72%29.98 "Hg10 mi
5:53 PM82 °FSunny.17 mph70%29.96 "Hg10 mi
4:53 PM83 °FPassing clouds.18 mph65%29.97 "Hg10 mi
3:53 PM85 °FScattered clouds.17 mph61%29.98 "Hg10 mi
2:53 PM87 °FSunny.15 mph53%30.00 "Hg10 mi
1:53 PM86 °FSunny.16 mph55%30.03 "Hg10 mi
12:53 PM85 °FSunny.20 mph59%30.05 "Hg10 mi
11:53 AM87 °FSunny.13 mph55%30.06 "Hg10 mi
10:53 AM85 °FSunny.14 mph61%30.08 "Hg10 mi
9:53 AM82 °FScattered clouds.13 mph70%30.08 "Hg10 mi
8:53 AM80 °FPassing clouds.5 mph74%30.08 "Hg10 mi
7:53 AM76 °FPassing clouds.No wind82%30.07 "Hg10 mi
6:53 AM76 °FPassing clouds.3 mph85%30.05 "Hg10 mi
5:53 AM76 °FClear.3 mph82%30.03 "Hg10 mi
Weather by CustomWeather, © 2015

See weather overviewHow to use our weather pages